CZ-2F DEB (46391 NORAD) Tracking and Keplerian Element Data

This shows tracking and keplerian element data for the satellite.

Feedback or suggestion? Click here.




ElementValue
Catalog46391
NameCZ-2F DEB
Epoch Orbit309
Epoch Day268.43658684
Epoch Year2020
RAAN324.8896
Inclination49.9036
Eccentricity0.0154094
Argument of Perigee229.7753
Mean Anonmoly129.044
Mean Motion15.38918975
Decay Rate0.00049158
L11 46391U 20063C 20268.43658684 .00049158 00000-0 82750-3 0 9998
L22 46391 49.9036 324.8896 0154094 229.7753 129.0440 15.38918975 3092

Live tracking and technical data element details for CZ-2F DEB (NORAD 46391). CZ-2F DEB can be tracked NOW for your location showing map with azimuth and elevation plus other details from your city location.

Track the satellite on the map from your city or location and see movement details for azimuth, elevation, latitude, longitude, range, height, and movement on the map or in text.







IsCatalogInMostPopularTable: catalog: 46391, numindb: 4
Update: records affected: 1



GetName: 46391 CZ-2F DEB

Hit Count: updated at: Sat, 26 Sep 2020 14:37:25 GMT